[keps] orb06257.2l.amsat

Ray Hoad r.hoad at att.net
Thu Sep 14 20:04:03 PDT 2006


SB KEPS @ AMSAT  $ORB06257.N
2Line Orbital Elements 06257.AMSAT

HR AMSAT ORBITAL ELEMENTS FOR AMATEUR SATELLITES IN NASA FORMAT
FROM WA5QGD FORT WORTH,TX September 14, 2006
Send SUBSCRIBE KEPS/UNSUBSCRIBE KEPS to majordomo at amsat.org only
BID: ORB06257.N

DECODE 2-LINE ELSETS WITH THE FOLLOWING KEY:
1 AAAAAU 00  0  0 BBBBB.BBBBBBBB  .CCCCCCCC  00000-0  00000-0 0  DDDZ
2 AAAAA EEE.EEEE FFF.FFFF GGGGGGG HHH.HHHH III.IIII JJ.JJJJJJJJKKKKKZ
KEY: A-CATALOGNUM B-EPOCHTIME C-DECAY D-ELSETNUM E-INCLINATION F-RAAN
G-ECCENTRICITY H-ARGPERIGEE I-MNANOM J-MNMOTION K-ORBITNUM Z-CHECKSUM

TO ALL RADIO AMATEURS BT

AO-07
1 07530U 74089B   06256.69195448 -.00000028  00000-0  10000-3 0 06822
2 07530 101.5605 297.3862 0012162 074.6326 285.6088 12.53571499456471
UO-11
1 14781U 84021B   06257.59579248 -.00000045  00000-0  13179-5 0  1746
2 14781 098.2071 269.7141 0009103 345.3225 014.7756 14.79459354208985
RS-10/11
1 18129U 87054A   06257.54315300  .00000033  00000-0  19825-4 0   914
2 18129 082.9222 262.0531 0010673 199.1261 160.9493 13.72778568963412
RS-15
1 23439U 94085A   06256.88515242 -.00000039  00000-0  10597-3 0 00170
2 23439 064.8172 093.7712 0166478 238.6934 119.7598 11.27551952482548
FO-29
1 24278U 96046B   06257.58111483 -.00000099  00000-0 -67339-4 0  3186
2 24278 098.5173 249.7634 0351476 077.8441 286.1836 13.52923149497632
SO-33
1 25509U 98061B   06256.66288553  .00000031  00000-0 -72443-5 0 07456
2 25509 031.4326 349.1127 0355020 169.9752 190.8182 14.28115634411698
VO-52
1 28650U 05017B   06256.75536019 -.00000014  00000-0  50376-5 0 04301
2 28650 097.8638 328.1880 0028419 074.2681 286.1683 14.81169770073497
AO-16
1 20439U 90005D   06256.62518852 -.00000000  00000-0  15145-4 0  8437
2 20439 098.1899 261.6031 0010325 295.6085 064.4026 14.31732596868970
LO-19
1 20442U 90005G   06257.61857083  .00000139  00000-0  66993-4 0  7790
2 20442 098.1880 272.0581 0011082 290.4814 069.5203 14.31975886869250
AO-27
1 22825U 93061C   06256.94030688 -.00000014  00000-0  10643-4 0 04961
2 22825 098.2928 234.4528 0008962 005.4954 354.6300 14.29183020676032
IO-26
1 22826U 93061D   06257.66496071  .00000018  00000-0  23137-4 0  1887
2 22826 098.2870 236.3205 0009214 000.7588 359.3601 14.29427518676213
PO-28
1 22829U 93061G   06256.91572672 -.00000052  00000-0 -42247-5 0 04729
2 22829 098.2769 236.8058 0009536 337.1924 022.8845 14.30122638676323
GO-32
1 25397U 98043D   06256.70815980 -.00000116  00000-0 -33023-4 0 01107
2 25397 098.4571 310.3985 0000953 002.5387 357.5814 14.23110070424836
MO-46
1 26548U 00057D   06256.65141240  .00000237  00000-0  46949-4 0  5948
2 26548 064.5582 318.1106 0043624 234.7449 124.9572 14.83016770322520
NO-44
1 26931U 01043C   06256.78932789 -.00000232  00000-0 -58427-4 0 04029
2 26931 067.0520 139.4597 0005487 251.2915 108.7560 14.29451012258595
SO-50
1 27607U 02058C   06257.35146279  .00000052  00000-0  30034-4 0  1201
2 27607 064.5583 202.4244 0035835 110.6458 249.8483 14.71171293200547
CO-57
1 27848U 03031J   06257.53682501  .00000062  00000-0  49568-4 0  8146
2 27848 098.7210 263.8999 0009351 164.5612 195.5848 14.20283558166323
AO-51
1 28375U 04025K   06256.70701284  .00000012  00000-0  16910-4 0 06287
2 28375 098.1563 304.6698 0083926 300.5504 058.7425 14.40532388115916
CO-55
1 28941U 06005C   06256.80039841  .00021048  23873-5  25905-3 0 02009
2 28941 098.1722 284.0817 0271162 162.6780 198.3974 15.27640961031066
NOAA-10
1 16969U 86073A   06257.10394485 -.00000100  00000-0 -22275-4 0  3460
2 16969 098.7598 268.9284 0011572 251.8315 108.1599 14.27302906 39840
NOAA-11
1 19531U 88089A   06257.32655744 -.00000198  00000-0 -79758-4 0  2823
2 19531 098.8242 344.7737 0012455 095.7226 264.5371 14.14815883927141
NOAA-12
1 21263U 91032A   06257.31789208 -.00000077  00000-0 -13946-4 0  7752
2 21263 098.7380 250.2538 0012479 185.7938 174.3113 14.25506667796947
MET-3/5
1 21655U 91056A   06256.94669229  .00000051  00000-0  10000-3 0 02416
2 21655 082.5584 198.0836 0012845 174.1014 186.0260 13.17008746725044
MET-2/21
1 22782U 93055A   06256.54638921 -.00000051  00000-0 -59552-4 0  6131
2 22782 082.5434 261.3510 0020981 294.3844 065.5122 13.83609771658264
OKEAN-4
1 23317U 94066A   06257.72426294  .00000261  00000-0  29438-4 0   504
2 23317 082.5417 193.4876 0024088 079.6344 280.7603 14.82397138643249
NOAA-14
1 23455U 94089A   06257.26590238 -.00000040  00000-0  29099-5 0  2738
2 23455 099.0288 316.4531 0009773 156.1219 204.0402 14.13682771603653
SICH-1
1 23657U 95046A   06257.71160544  .00000110  00000-0  10897-4 0  8535
2 23657 082.5312 334.4107 0025687 070.1146 290.2867 14.81389541595248
NOAA-15
1 25338U 98030A   06257.43338826 -.00000039  00000-0  15878-5 0  6600
2 25338 098.5218 257.0832 0011528 111.9088 248.3327 14.24602073433422
RESURS
1 25394U 98043A   06257.79485974  .00000010  00000-0  22611-4 0  4587
2 25394 098.4826 317.6228 0000826 306.7954 053.3149 14.24111701425155
FENGYUN1
1 25730U 99025A   06256.56830117 -.00000155  00000-0 -61727-4 0 08249
2 25730 098.6339 245.8003 0013553 249.6214 110.3486 14.11815045378487
OKEAN-0
1 25860U 99039A   06257.71961215  .00000066  00000-0  17381-4 0  8516
2 25860 097.7334 267.8813 0001139 109.5682 250.5637 14.73388402384931
NOAA-16
1 26536U 00055A   06257.40736431  .00000117  00000-0  88607-4 0   410
2 26536 099.0768 225.1152 0009820 228.1535 131.8827 14.12368201308173
NOAA-17
1 27453U 02032A   06257.34958493  .00000041  00000-0  36888-4 0   604
2 27453 098.6146 327.8020 0011963 172.6023 187.5331 14.23808893219466
NOAA-18
1 28654U 05018A   06257.27306514 -.00000002  00000-0  23032-4 0  6339
2 28654 098.7929 198.6633 0014444 333.1372 026.9061 14.10989408 67940
HUBBLE
1 20580U 90037B   06256.91697540  .00000479  00000-0  24514-4 0 07183
2 20580 028.4683 191.4537 0003462 049.8085 310.2805 15.00092115698430
UARS
1 21701U 91063B   06256.94347896  .00005854  00000-0  11006-3 0 08700
2 21701 056.9753 069.6512 0103057 023.4210 337.1497 15.44592314823011
PO-34
1 25520U 98064B   06256.91341224  .00000662  00000-0  23088-4 0 05722
2 25520 028.4598 157.5438 0005596 126.8216 233.2889 15.16787528435531
ISS
1 25544U 98067A   06257.97699067 -.00051403  00000-0 -32410-3 0  6662
2 25544 051.6336 084.9179 0011192 340.6475 182.4049 15.75721226447323
OO-38
1 26063U 00004C   06257.77106238 -.00000004  00000-0  18966-4 0  7172
2 26063 100.1918 204.9522 0036630 214.7437 145.1349 14.35776694347529
NO-45
1 26932U 01043D   06256.93917430 -.00000004  00000-0  30661-4 0 04276
2 26932 067.0538 138.7939 0006978 236.4921 123.5513 14.29534848258654
UWE-1
1 28892U 05043C   06257.67142603  .00000157  00000-0  42930-4 0  5519
2 28892 098.1505 154.3915 0016352 252.7627 107.1782 14.59394471 47021
CO-58
1 28895U 05043F   06256.69957866  .00000284  00000-0  69594-4 0 05356
2 28895 098.1518 153.5469 0016859 256.8198 103.1116 14.59445177046760
NCUBE2
1 28897U 05043H   06256.66743442  .00000141  00000-0  39392-4 0 01191
2 28897 098.1519 153.4941 0016387 258.4331 101.5028 14.59600620039032
/EX






More information about the Keps mailing list